You are not logged in, Click here to log in
大島空港OIM / RJTO 東京都大島町(伊豆大島)
ICAO: RJTO Country: 東京都大島町(伊豆大島)
Latitude: 34.7819 Longitude: 139.36
Total Arrivals: 5 Total Departures: 2
Latest Arrival: EHF692 (RJAA-RJTO)KE. CHIH-HAO Latest Departure: K5LQ964 (RJTO-RJNT)Stone. Chang
Scenery:
METAR : RJTO 080200Z 05012KT 010V090 9999 FEW025 12/03 Q1021

大島空港OIM